#timestamp,LO_Frequency,Hit,StdDev 
1660384815.5,286047001.6,N
1660384835.3,286047002.0,N
1660384855.2,286047002.7,N
1660384875.9,286047002.0,N
1660384895.7,286047002.3,N
1660384915.6,286047002.5,N
1660384935.4,286047002.4,N
1660384955.3,286047002.8,N
1660384975.1,286046999.8,N
1660384976.0,286046999.8,N
1660384995.8,286047002.6,N
1660385015.7,286046999.9,N
1660385035.5,286046999.9,N
1660385055.3,286047000.4,N
1660385075.2,286047000.3,N
1660385095.0,286047000.8,N
1660385095.9,286047000.8,N
1660385115.8,286047001.1,N
1660385135.6,286047001.2,N
1660385155.4,286047001.0,N
1660385175.3,286047000.5,N
1660385195.1,286047001.1,N
1660385215.9,286047001.1,N
1660385235.7,286046998.7,N
1660385255.5,286046999.4,N
1660385275.4,286046999.1,N
1660385295.2,286046999.1,N
1660385315.0,286046996.6,N
1660385315.9,286046996.6,N
1660385335.8,286046999.4,N
1660385355.6,286046996.9,N
1660385375.5,286046996.9,N
1660385395.3,286046999.2,N
1660385415.1,286046999.2,N
1660385435.9,286046996.5,N
1660385455.7,286046997.7,N
1660385475.5,286046996.7,N
1660385495.4,286046999.1,N
1660385515.2,286046999.5,N
1660385535.1,286046999.1,N
1660385536.0,286046999.1,N
1660385555.8,286046999.1,N
1660385575.6,286046999.3,N
1660385595.5,286046997.0,N
1660385615.3,286046997.0,N
1660385635.1,286046997.8,N
1660385655.9,286046997.1,N
1660385675.7,286046997.0,N
1660385695.6,286046995.0,Y
1660385715.4,286046996.6,P
1660385735.2,286046998.8,N
1660385755.1,286046998.3,N
1660385756.0,286046998.3,N
1660385775.8,286046996.5,Y
1660385795.7,286046998.3,P
1660385815.5,286046998.6,P
1660385835.3,286047000.6,N
1660385855.2,286047002.7,N
1660385875.0,286047002.7,N
1660385875.9,286047002.7,N
1660385895.7,286046999.8,N
1660385915.6,286047000.3,N
1660385935.4,286047001.0,N
1660385955.3,286047002.7,N
1660385975.1,286047000.5,N
1660385976.0,286047000.5,N
1660385995.8,286047000.0,N
1660386015.7,286047002.5,N
1660386035.5,286047000.3,N
1660386055.3,286046999.9,N
1660386075.2,286047000.5,N
1660386095.0,286047000.8,N
1660386095.9,286047000.8,N
1660386115.8,286046998.6,N
1660386135.6,286046998.5,N
1660386155.4,286047001.2,N
1660386175.3,286046998.1,N
1660386195.1,286046998.8,N
1660386215.9,286046998.6,N
1660386235.7,286046998.7,N
1660386255.5,286047000.7,N
1660386275.4,286047001.2,N
1660386295.2,286047001.2,N
1660386315.0,286046998.3,N
1660386315.9,286046998.3,N
1660386335.8,286047001.1,N
1660386355.6,286046998.7,N
1660386375.5,286046998.8,N
1660386395.3,286046998.3,N
1660386415.1,286046998.1,N
1660386435.9,286046998.3,N
1660386455.7,286047001.2,N
1660386475.5,286047000.7,N
1660386495.4,286047000.5,N
1660386515.2,286047000.9,N
1660386535.1,286047000.9,N
1660386536.0,286047000.9,N
1660386555.8,286046998.4,N
1660386575.6,286046998.6,N
1660386595.5,286046998.6,N
1660386615.3,286046998.6,N
1660386635.1,286046998.9,N
1660386655.9,286046999.4,N
1660386675.7,286046999.6,N
1660386695.6,286046996.5,N
1660386715.4,286046998.6,N
1660386735.2,286046998.2,N
1660386755.1,286046998.1,N
1660386756.0,286046998.1,N
1660386775.8,286046998.6,N
1660386795.7,286046998.6,N
1660386815.5,286046998.8,N
1660386835.3,286046998.9,N
1660386855.2,286046999.3,N
1660386875.0,286046999.5,N
1660386875.9,286046999.5,N
1660386895.8,286046999.2,N
1660386915.6,286046997.3,N
1660386935.4,286046997.7,N
1660386955.3,286046997.1,N
1660386975.1,286046997.4,N
1660386995.8,286046996.8,N
1660387015.7,286046999.6,N
1660387035.5,286046999.5,N
1660387055.4,286046999.3,N
1660387075.2,286046999.0,N
1660387095.0,286046996.9,Y
1660387095.9,286046996.9,P
1660387115.8,286047001.2,N
1660387135.6,286047001.2,N
1660387155.5,286047001.0,N
1660387175.3,286046999.9,N
1660387195.1,286047000.8,N
1660387215.9,286047001.2,N
1660387235.7,286047000.9,N
1660387255.5,286047001.1,N
1660387275.4,286046999.4,N
1660387295.2,286046998.7,N
1660387315.1,286046998.4,N
1660387316.0,286046998.4,N
1660387335.8,286046998.3,N
1660387355.6,286046999.3,N
1660387375.5,286046998.8,N
1660387395.3,286046998.9,N
1660387415.1,286046999.0,N
1660387435.9,286046999.5,N
1660387455.7,286046999.2,N
1660387475.6,286046999.2,N
1660387495.4,286046999.3,N
1660387515.2,286046999.4,N
1660387535.1,286046999.1,N
1660387536.0,286046999.1,N
1660387555.8,286046998.4,N
1660387575.6,286046998.7,N
1660387595.5,286046999.5,N
1660387615.3,286046999.4,N
1660387635.2,286046996.9,N
1660387655.9,286046999.5,N
1660387675.7,286046997.1,N
1660387695.6,286046996.6,Y
1660387715.4,286046999.6,P
1660387735.3,286046997.2,P
1660387755.1,286046995.3,P
1660387756.0,286046995.3,N
1660387775.8,286046995.3,N
1660387795.7,286046995.5,N
1660387815.5,286046996.2,N
1660387835.3,286046993.8,Y
1660387855.2,286046998.8,P
1660387875.0,286046999.4,N
1660387875.9,286046999.4,N
1660387895.8,286046998.7,N
1660387915.6,286046996.5,Y
1660387935.4,286046999.3,P
1660387955.3,286046998.6,P
1660387975.1,286046998.3,P
1660387995.8,286046999.9,N
1660388015.7,286047000.1,N
1660388035.5,286046999.8,N
1660388055.4,286047000.4,N
1660388075.2,286047000.7,N
1660388095.0,286047000.1,N
1660388095.9,286047000.1,N
1660388115.8,286047000.0,N
1660388135.6,286047000.4,N
1660388155.4,286047001.1,N
1660388175.3,286047000.2,N
1660388195.1,286046999.7,N
1660388215.9,286047002.8,Y
1660388235.7,286047002.6,P
1660388255.6,286046999.8,N
1660388275.4,286046999.8,N
1660388295.3,286047002.7,N
1660388315.1,286047003.9,N
1660388316.0,286047003.9,N
1660388335.8,286047004.2,N
1660388355.7,286047001.7,N
1660388375.5,286047001.9,N
1660388395.4,286047001.4,N
